Location: Tel Aviv
(32.0670°N, 34.7670°E)
Time: 10:58:02
(UTC+02:00)

Explorer 7 - All Passes

Search period start: 28 January 2022 00:00
Search period end: 07 February 2022 00:00
Orbit: 483 x 674 km, 50.3° (Epoch: 27 January)

Date Brightness Start Highest point End Pass type
(mag) Time Alt. Az. Time Alt. Az. Time Alt. Az.
28 Jan - 06:30:05 10° S 06:33:10 23° SE 06:36:21 10° ENE daylight
28 Jan - 08:09:49 10° WSW 08:13:25 35° NW 08:17:13 10° NNE daylight
28 Jan - 13:16:41 10° NNW 13:19:30 16° NNE 13:22:23 10° ENE daylight
28 Jan - 14:55:57 10° NW 15:00:36 73° NE 15:05:26 10° SE daylight
28 Jan - 16:38:00 10° W 16:40:44 15° SW 16:43:31 10° SSW daylight
29 Jan - 06:33:15 10° SSW 06:36:52 43° SE 06:40:39 10° ENE daylight
29 Jan - 08:14:18 10° W 08:17:26 22° NNW 08:20:43 10° NNE daylight
29 Jan - 13:20:04 10° NNW 13:23:36 22° NNE 13:27:16 10° E daylight
29 Jan - 14:59:48 10° NW 15:04:25 68° SW 15:09:13 10° SE daylight
30 Jan - 06:36:51 10° SW 06:40:38 84° SE 06:44:37 10° NE daylight
30 Jan - 08:19:07 10° WNW 08:21:33 16° NNW 08:24:04 10° NNE daylight
30 Jan - 13:23:35 10° NNW 13:27:37 31° NE 13:31:51 10° E daylight
30 Jan - 15:03:51 10° WNW 15:08:11 39° SW 15:12:40 10° SSE daylight
31 Jan - 05:02:32 10° SSE 05:04:30 14° SE 05:06:30 10° E visible
31 Jan - 06:40:46 10° WSW 06:44:29 53° NW 06:48:24 10° NE daylight
31 Jan - 08:24:28 10° NW 08:25:44 11° NNW 08:27:01 10° N daylight
31 Jan - 11:48:33 10° N 11:50:16 12° NNE 11:52:02 10° NE daylight
31 Jan - 13:27:11 10° NW 13:31:35 48° NE 13:36:10 10° ESE daylight
31 Jan - 15:08:12 10° WNW 15:11:54 23° SW 15:15:41 10° S daylight
01 Feb - 05:05:01 10° S 05:08:09 25° SE 05:11:21 10° ENE visible
01 Feb - 06:45:01 10° W 06:48:26 31° NW 06:52:01 10° NNE daylight
01 Feb - 11:51:40 10° NNW 11:54:26 16° NNE 11:57:17 10° ENE daylight
01 Feb - 13:30:55 10° NW 13:35:27 79° NE 13:40:12 10° SE daylight
01 Feb - 15:13:17 10° W 15:15:34 13° SW 15:17:52 10° SSW daylight
02 Feb - 05:08:14 10° SSW 05:11:51 48° SE 05:15:35 10° ENE visible
02 Feb - 06:49:33 10° W 06:52:27 20° NNW 06:55:28 10° NNE daylight
02 Feb - 11:55:02 10° NNW 11:58:31 22° NNE 12:02:08 10° E daylight
02 Feb - 13:34:47 10° NW 13:39:15 61° SW 13:43:56 10° SE daylight
03 Feb - 05:11:53 10° SW 05:15:38 88° NW 05:19:31 10° NE visible
03 Feb - 06:54:28 10° WNW 06:56:34 14° NNW 06:58:44 10° N daylight
03 Feb - 11:58:32 10° NNW 12:02:31 33° NE 12:06:41 10° E daylight
03 Feb - 13:38:53 10° WNW 13:43:01 35° SW 13:47:19 10° SSE daylight
04 Feb - 03:37:15 10° SSE 03:39:27 15° SE 03:41:39 10° E visible
04 Feb - 05:15:52 10° WSW 05:19:29 47° NW 05:23:15 10° NE visible
04 Feb - 07:00:34 10° NNW 07:00:45 10° NNW 07:00:57 10° NNW daylight
04 Feb - 10:23:35 10° N 10:25:13 12° NNE 10:26:53 10° NE daylight
04 Feb - 12:02:09 10° NW 12:06:26 51° NE 12:10:57 10° ESE daylight
04 Feb - 13:43:19 10° W 13:46:42 21° SW 13:50:12 10° S daylight
05 Feb - 03:39:53 10° S 03:43:06 28° SE 03:46:22 10° ENE visible
05 Feb - 05:20:09 10° W 05:23:26 28° NW 05:26:49 10° NNE visible
05 Feb - 10:26:40 10° NNW 10:29:22 16° NNE 10:32:09 10° ENE daylight
05 Feb - 12:05:54 10° NW 12:10:17 86° NE 12:14:57 10° SE daylight
05 Feb - 13:48:45 10° WSW 13:50:22 12° SW 13:51:59 10° SSW daylight
06 Feb - 03:43:11 10° SSW 03:46:49 53° SE 03:50:32 10° ENE visible
06 Feb - 05:24:46 10° WNW 05:27:28 18° NNW 05:30:14 10° NNE visible
06 Feb - 10:30:01 10° NNW 10:33:25 23° NNE 10:36:59 10° E daylight
06 Feb - 12:09:47 10° WNW 12:14:05 55° SW 12:18:36 10° SSE daylight
